FW6283 Weather Reports


time (UTC)temp
C
wind
direction
speed
KPH
gust
KPH
rain 1hr
cm
rain 24hr
cm
rain mn
cm
humidity
%
barometer
mb
20260505091552 7 214 8.0 33.8 0.00 1.09 0.00 82 1008.1
20260505090051 6 214 8.0 19.3 0.00 1.09 0.00 84 1007.9
20260505084536 6 227 3.2 11.3 0.00 1.12 0.00 83 1007.7
20260505083039 7 221 6.4 20.9 0.00 1.12 0.00 83 1007.6
20260505081543 7 237 8.0 30.6 0.00 1.12 0.00 83 1007.4
20260505080037 7 289 9.7 38.6 0.00 1.12 0.00 82 1007.3
20260505074523 7 186 17.7 41.8 0.00 1.19 0.00 82 1007.2
20260505073020 7 211 12.9 29.0 0.00 1.19 0.00 82 1007.1
20260505071526 7 226 12.9 30.6 0.00 1.19 0.00 81 1006.8
20260505070018 7 208 19.3 38.6 0.00 1.19 0.00 81 1006.6
20260505064514 8 193 19.3 45.1 0.00 1.24 0.00 81 1006.2
20260505063012 7 226 19.3 37.0 0.00 1.24 0.00 81 1006.0
20260505061523 7 256 16.1 38.6 0.00 1.24 0.00 81 1005.7
20260505060007 8 225 16.1 43.5 0.00 1.24 0.00 81 1005.5
20260505054504 8 247 16.1 32.2 0.00 1.24 0.00 81 1005.2
20260505053003 8 219 11.3 33.8 0.00 1.24 0.00 81 1005.0
20260505051600 8 222 11.3 29.0 0.00 1.24 0.00 81 1004.9
20260505041551 8 254 11.3 25.7 0.00 1.24 0.00 83 1004.3
20260505040050 8 231 12.9 22.5 0.00 1.24 0.00 83 1004.3
20260505034549 8 181 8.0 27.4 0.00 1.24 0.00 83 1004.2
20260505033051 8 242 12.9 32.2 0.00 1.24 0.00 84 1004.1
20260505031543 7 221 9.7 32.2 0.00 1.24 0.00 83 1003.7
20260505030039 8 244 19.3 30.6 0.00 1.24 0.00 80 1003.6
20260505024601 8 215 9.7 27.4 0.00 1.27 1.24 79 1003.4
20260505023039 9 234 16.1 32.2 0.00 1.27 1.24 76 1003.0
20260505021546 9 210 11.3 29.0 0.00 1.27 1.24 74 1003.1
20260505020039 9 262 11.3 20.9 0.00 1.27 1.24 73 1003.0
20260505014531 9 216 6.4 24.1 0.00 2.01 1.24 71 1002.5
20260505013032 10 217 14.5 37.0 0.00 2.01 1.24 71 1002.4
20260505011547 8 278 12.9 37.0 0.00 2.01 1.24 73 1002.3
20260505010030 7 189 4.8 16.1 0.00 2.01 1.24 74 1002.0
20260505004538 7 198 1.6 8.0 0.00 2.84 1.24 74 1002.0
20260505003028 7 181 3.2 6.4 0.00 2.84 1.24 73 1002.0
20260505001527 7 195 3.2 17.7 0.00 2.84 1.24 74 1002.0
20260505000026 7 162 3.2 9.7 0.00 2.84 1.24 72 1002.0
20260504234524 7 160 3.2 11.3 0.00 3.33 1.24 71 1001.7
20260504233023 8 213 0.0 12.9 0.00 3.33 1.24 67 1001.2
20260504231521 8 202 1.6 8.0 0.00 3.33 1.24 67 1001.1
20260504230021 9 104 6.4 24.1 0.00 3.33 1.24 64 1000.7
20260504224522 9 251 11.3 38.6 0.00 4.09 1.24 63 1000.5
20260504223018 10 214 11.3 19.3 0.00 4.09 1.24 63 1000.6
20260504221516 10 210 8.0 24.1 0.00 4.09 1.24 64 1000.3
20260504220021 10 224 6.4 25.7 0.00 4.37 1.24 64 1000.0
20260504214512 10 239 6.4 25.7 0.00 4.37 1.24 65 999.8
20260504213010 10 358 11.3 32.2 0.00 4.37 1.24 64 999.5
20260504211509 10 219 16.1 38.6 0.00 4.37 1.24 65 999.6
20260504210010 10 259 14.5 33.8 0.00 4.55 1.24 66 999.3
20260504204514 10 279 16.1 38.6 0.00 4.55 1.24 66 999.2
20260504203004 10 250 11.3 33.8 0.00 4.55 1.24 69 999.3
20260504201502 10 243 16.1 45.1 0.00 4.55 1.24 68 998.8
20260504200111 10 260 11.3 54.7 0.00 4.55 1.24 68 998.6
20260504194557 10 238 20.9 49.9 0.00 4.70 1.24 70 998.1
20260504193055 10 199 22.5 49.9 0.00 4.70 1.24 72 997.9
20260504191551 9 247 17.7 46.7 0.00 4.70 1.24 75 997.6
20260504190050 9 197 14.5 45.1 0.00 4.70 1.24 78 997.2
20260504184555 8 250 22.5 45.1 0.00 4.70 1.24 76 996.9
20260504183045 8 285 22.5 48.3 0.00 4.70 1.24 79 996.8
20260504181545 8 233 17.7 49.9 0.00 4.70 1.24 82 996.2
20260504180041 8 269 20.9 51.5 0.00 4.70 1.24 82 995.9
20260504174537 8 214 22.5 46.7 0.00 4.70 1.24 85 995.7
20260504173033 7 257 20.9 56.3 0.00 4.70 1.24 86 995.7
20260504171530 6 270 27.4 57.9 0.00 4.70 1.24 86 995.2